Camden, AR

6:27 AM CDT on October 18, 2017 (GMT -0500)
Harrell

Weather History for KCDH - December, 2012

Change the Weather History Date:

Friday, December 14, 2012

  Actual Average Record
Temperature  
Mean Temperature 42 °F -  
Max Temperature 60 °F 56 °F 82 °F (1948)
Min Temperature 24 °F 33 °F 14 °F (1958)
Degree Days  
Heating Degree Days 23    
Moisture  
Dew Point 32 °F    
Average Humidity 70    
Maximum Humidity 93    
Minimum Humidity 34    
Precipitation  
Precipitation 0.01 in - - ()
Sea Level Pressure  
Sea Level Pressure 30.17 in    
Wind  
Wind Speed 1 mph (SE)    
Max Wind Speed 12 mph    
Max Gust Speed 17 mph    
Visibility 10 miles    
Events Rain    
Averages and records for this station are not official NWS values.
T = Trace of Precipitation, MM = Missing Value Source: NWS Daily Summary

Daily Weather History Graph

Daily Weather History Graph

Search for Another Location

Airport or City:

Trip Planner

Search our weather history database for the weather conditions in past years. The results will help you decide how hot, cold, wet, or windy it might be!

Date:

Astronomy

Dec. 14, 2012 Rise Set
Actual Time 7:07 AM CST 5:04 PM CST
Civil Twilight 6:40 AM CST 5:31 PM CST
Nautical Twilight 6:09 AM CST 6:02 PM CST
Astronomical Twilight 5:38 AM CST 6:33 PM CST
Moon 8:15 AM CST (12/14) 6:54 PM CST (12/14)
Length of Visible Light 10h 51m
Length of Day
9h 56m
Waxing Crescent, 3% of the Moon is Illuminated
Dec 14
Waxing Crescent
Dec 19
First Quarter
Dec 28
Full
Jan 4
Last Quarter
Jan 11
New

Hourly Weather History & Observations

Time (CST) Temp. Windchill Dew Point Humidity Pressure Visibility Wind Dir Wind Speed Gust Speed Precip Events Conditions
12:15 AM 28.4 °F - 26.6 °F 93% 30.29 in 10.0 mi Calm Calm - N/A   Clear
12:35 AM 28.4 °F - 26.6 °F 93% 30.29 in 10.0 mi Calm Calm - N/A   Clear
12:55 AM 26.6 °F - 24.8 °F 93% 30.27 in 10.0 mi Calm Calm - N/A   Clear
1:15 AM 26.6 °F - 24.8 °F 93% 30.27 in 10.0 mi Calm Calm - N/A   Clear
1:35 AM 28.4 °F - 24.8 °F 86% 30.28 in 10.0 mi Calm Calm - N/A   Clear
1:55 AM 26.6 °F - 24.8 °F 93% 30.28 in 10.0 mi Calm Calm - N/A   Clear
2:15 AM 26.6 °F - 24.8 °F 93% 30.28 in 10.0 mi Calm Calm - N/A   Clear
2:55 AM 26.6 °F - 24.8 °F 93% 30.26 in 10.0 mi Calm Calm - N/A   Clear
3:15 AM 26.6 °F - 24.8 °F 93% 30.26 in 10.0 mi Calm Calm - N/A   Clear
3:55 AM 26.6 °F - 23.0 °F 86% 30.26 in 10.0 mi Calm Calm - N/A   Clear
4:15 AM 24.8 °F - 23.0 °F 93% 30.25 in 10.0 mi Calm Calm - N/A   Clear
4:35 AM 26.6 °F - 23.0 °F 86% 30.26 in 10.0 mi Calm Calm - N/A   Clear
4:55 AM 24.8 °F - 23.0 °F 93% 30.25 in 10.0 mi Calm Calm - N/A   Clear
5:15 AM 24.8 °F - 23.0 °F 93% 30.24 in 10.0 mi Calm Calm - N/A   Clear
5:35 AM 24.8 °F - 23.0 °F 93% 30.24 in 10.0 mi Calm Calm - N/A   Clear
5:55 AM 24.8 °F - 23.0 °F 93% 30.25 in 10.0 mi Calm Calm - N/A   Clear
6:15 AM 24.8 °F - 23.0 °F 93% 30.25 in 10.0 mi Calm Calm - N/A   Clear
6:35 AM 24.8 °F - 23.0 °F 93% 30.27 in 10.0 mi Calm Calm - N/A   Clear
6:55 AM 24.8 °F - 23.0 °F 93% 30.27 in 10.0 mi Calm Calm - N/A   Clear
7:15 AM 24.8 °F - 23.0 °F 93% 30.27 in 10.0 mi Calm Calm - N/A   Clear
7:35 AM 26.6 °F - 23.0 °F 86% 30.28 in 10.0 mi Calm Calm - N/A   Clear
7:55 AM 26.6 °F - 24.8 °F 93% 30.27 in 10.0 mi Calm Calm - N/A   Clear
8:15 AM 28.4 °F - 24.8 °F 86% 30.28 in 10.0 mi Calm Calm - N/A   Clear
8:55 AM 32.0 °F - 28.4 °F 87% 30.28 in 10.0 mi Calm Calm - N/A   Clear
9:15 AM 35.6 °F - 32.0 °F 87% 30.28 in 7.0 mi Calm Calm - N/A   Clear
9:35 AM 39.2 °F - 32.0 °F 75% 30.28 in 9.0 mi Calm Calm - N/A   Clear
9:55 AM 41.0 °F - 32.0 °F 70% 30.27 in 5.0 mi Calm Calm - N/A   Clear
10:15 AM 42.8 °F 41.1 °F 32.0 °F 66% 30.27 in 9.0 mi SSE 3.5 mph - N/A   Clear
10:55 AM 50.0 °F - 32.0 °F 50% 30.26 in 10.0 mi Calm Calm - N/A   Clear
11:15 AM 51.8 °F - 32.0 °F 47% 30.25 in 10.0 mi South 4.6 mph - N/A   Clear
11:35 AM 55.4 °F - 32.0 °F 41% 30.24 in 10.0 mi Calm Calm - N/A   Clear
11:55 AM 57.2 °F - 32.0 °F 38% 30.23 in 10.0 mi Calm Calm - N/A   Clear
12:15 PM 59.0 °F - 32.0 °F 36% 30.21 in 10.0 mi Calm Calm - N/A   Partly Cloudy
12:35 PM 60.8 °F - 32.0 °F 34% 30.20 in 10.0 mi Calm Calm - N/A   Partly Cloudy
12:55 PM 60.8 °F - 32.0 °F 34% 30.19 in 10.0 mi South 3.5 mph - N/A   Clear
1:15 PM 59.0 °F - 32.0 °F 36% 30.17 in 10.0 mi NNE 3.5 mph - N/A   Scattered Clouds
1:35 PM 60.8 °F - 32.0 °F 34% 30.15 in 10.0 mi NE 3.5 mph - N/A   Mostly Cloudy
2:35 PM 59.0 °F - 33.8 °F 39% 30.10 in 10.0 mi Calm Calm - N/A   Mostly Cloudy
2:55 PM 59.0 °F - 32.0 °F 36% 30.10 in 10.0 mi SE 6.9 mph - N/A   Partly Cloudy
3:15 PM 59.0 °F - 32.0 °F 36% 30.09 in 10.0 mi SE 5.8 mph - N/A   Clear
3:35 PM 59.0 °F - 32.0 °F 36% 30.08 in 10.0 mi SE 6.9 mph - N/A   Clear
3:55 PM 59.0 °F - 32.0 °F 36% 30.07 in 10.0 mi SE 5.8 mph - N/A   Clear
4:15 PM 57.2 °F - 33.8 °F 41% 30.07 in 10.0 mi SE 5.8 mph - N/A   Partly Cloudy
4:35 PM 57.2 °F - 33.8 °F 41% 30.07 in 10.0 mi SSE 4.6 mph - N/A   Partly Cloudy
4:55 PM 57.2 °F - 33.8 °F 41% 30.06 in 10.0 mi SE 4.6 mph - N/A   Mostly Cloudy
5:15 PM 55.4 °F - 35.6 °F 47% 30.07 in 10.0 mi Calm Calm - N/A   Overcast
5:35 PM 55.4 °F - 33.8 °F 44% 30.09 in 10.0 mi South 4.6 mph - N/A   Overcast
5:55 PM 53.6 °F - 37.4 °F 54% 30.09 in 5.0 mi South 3.5 mph - N/A Rain Light Rain
6:35 PM 50.0 °F - 44.6 °F 82% 30.08 in 10.0 mi Calm Calm - 0.01 in   Overcast
6:55 PM 50.0 °F - 41.0 °F 71% 30.07 in 10.0 mi Calm Calm - 0.01 in Rain Light Rain
7:35 PM 50.0 °F - 44.6 °F 82% 30.07 in 10.0 mi Calm Calm - N/A Rain Light Rain
7:55 PM 48.2 °F - 44.6 °F 87% 30.07 in 10.0 mi NE 3.5 mph - N/A Rain Light Rain
8:15 PM 50.0 °F - 44.6 °F 82% 30.06 in 10.0 mi East 3.5 mph - N/A   Overcast
8:55 PM 50.0 °F - 42.8 °F 76% 30.03 in 10.0 mi ESE 3.5 mph - N/A   Overcast
9:15 PM 51.8 °F - 42.8 °F 71% 30.04 in 10.0 mi SE 5.8 mph - N/A   Overcast
9:35 PM 51.8 °F - 42.8 °F 71% 30.02 in 10.0 mi ESE 4.6 mph - N/A   Overcast
9:55 PM 51.8 °F - 42.8 °F 71% 30.03 in 10.0 mi SE 4.6 mph - N/A   Overcast
10:15 PM 51.8 °F - 42.8 °F 71% 30.02 in 10.0 mi ESE 4.6 mph - N/A   Overcast
10:35 PM 53.6 °F - 42.8 °F 67% 30.02 in 10.0 mi SE 5.8 mph - N/A   Overcast
10:55 PM 53.6 °F - 42.8 °F 67% 30.01 in 10.0 mi SE 6.9 mph - N/A   Overcast
11:15 PM 53.6 °F - 42.8 °F 67% 30.01 in 10.0 mi SSE 9.2 mph - N/A   Overcast
11:35 PM 53.6 °F - 42.8 °F 67% 29.99 in 10.0 mi SE 11.5 mph 17.3 mph N/A   Overcast
11:55 PM 53.6 °F - 42.8 °F 67% 29.98 in 10.0 mi SE 11.5 mph - N/A   Overcast